Date String (YYYY-MM-DD hh:mm:ss) UTC,Instrument flags,Ambient pressure (hPa),Sample flow (lpm),Bypass flow (lpm),Sample temperature (°C),Ambient temperature (°C),ASC tube jacket temperature (°C),LED temperature (°C),Box temperature (°C),Sample RH (%),Span deviation,Mass concentration (μg/m³),Mass concentration (μg/m³),Mass concentration (μg/m³)
DateTimeUTC,F1_M11,P_M11,Q1_M11,Q2_M11,T1_M11,T2_M11,T3_M11,T4_M11,T5_M11,U1_M11,ZSPAN_M11,X2_M11,X0_M11,X1_M11
2023-03-06 11:00:00,,0822.6,5.00,0.00,21.5,20.7,00.0,30.1,23.1,09.8,0000.0,0002.50,0006.22,0001.46
2023-03-06 11:01:00,,0822.6,5.00,0.00,21.5,20.4,00.0,30.2,23.1,09.8,0000.0,0002.54,0006.30,0001.49
2023-03-06 11:02:00,,0822.6,4.99,0.00,21.5,20.1,00.0,30.2,23.0,09.8,0000.0,0002.62,0006.85,0001.52
2023-03-06 11:03:00,,0822.6,4.99,0.00,21.4,19.9,00.0,30.2,22.9,09.8,0000.0,0002.75,0007.36,0001.52
2023-03-06 11:04:00,,0822.7,5.00,0.00,21.4,19.7,00.0,30.1,22.9,09.8,0000.0,0002.84,0007.75,0001.54
2023-03-06 11:05:00,,0822.6,5.00,0.00,21.4,19.6,00.0,30.1,22.9,09.8,0000.0,0002.86,0008.10,0001.55
2023-03-06 11:06:00,,0822.6,5.00,0.00,21.3,19.5,00.0,30.1,22.8,09.8,0000.0,0002.95,0008.15,0001.58
2023-03-06 11:07:00,,0822.6,5.00,0.00,21.3,19.7,00.0,30.1,22.8,09.7,0000.0,0003.02,0008.10,0001.59
2023-03-06 11:08:00,,0822.6,4.99,0.00,21.4,21.0,00.0,30.1,23.0,09.7,0000.0,0003.02,0007.78,0001.59
2023-03-06 11:09:00,,0822.7,5.04,0.00,21.5,22.1,00.0,30.1,23.4,09.6,0000.0,0003.05,0008.67,0001.59
2023-03-06 11:10:00,,0822.6,5.01,0.00,21.6,22.3,00.0,30.2,23.5,09.6,0000.0,0003.06,0008.77,0001.60
2023-03-06 11:11:00,,0822.6,5.01,0.00,21.6,21.7,00.0,30.2,23.4,09.5,0000.0,0003.02,0008.76,0001.59
2023-03-06 11:12:00,,0822.6,5.01,0.00,21.6,21.2,00.0,30.2,23.3,09.5,0000.0,0002.94,0008.64,0001.56
2023-03-06 11:13:00,,0822.6,5.01,0.00,21.6,20.7,00.0,30.2,23.2,09.5,0000.0,0002.88,0008.44,0001.56
2023-03-06 11:14:00,,0822.7,5.00,0.00,21.5,20.3,00.0,30.2,23.0,09.5,0000.0,0002.74,0008.45,0001.55
2023-03-06 11:15:00,,0822.6,4.99,0.00,21.5,19.9,00.0,30.2,22.9,09.5,0000.0,0002.70,0008.06,0001.54
2023-03-06 11:16:00,,0822.6,5.00,0.00,21.4,19.6,00.0,30.2,22.8,09.5,0000.0,0002.73,0007.70,0001.55
2023-03-06 11:17:00,,0822.6,5.00,0.00,21.3,19.4,00.0,30.2,22.7,09.5,0000.0,0002.67,0007.61,0001.55
2023-03-06 11:18:00,,0822.6,5.01,0.00,21.3,19.3,00.0,30.2,22.7,09.6,0000.0,0002.55,0007.44,0001.53
2023-03-06 11:19:00,,0822.6,5.01,0.00,21.3,19.9,00.0,30.2,22.8,09.6,0000.0,0002.51,0007.53,0001.51
2023-03-06 11:20:00,,0822.6,4.99,0.00,21.4,21.2,00.0,30.1,23.1,09.6,0000.0,0002.48,0006.27,0001.51
2023-03-06 11:21:00,,0822.6,5.00,0.00,21.5,22.3,00.0,30.2,23.4,09.5,0000.0,0002.44,0005.98,0001.50
2023-03-06 11:22:00,,0822.6,5.01,0.00,21.6,22.1,00.0,30.2,23.5,09.4,0000.0,0002.44,0005.94,0001.49
2023-03-06 11:23:00,,0822.6,4.99,0.00,21.6,21.6,00.0,30.2,23.4,09.4,0000.0,0002.46,0006.16,0001.48
2023-03-06 11:24:00,,0822.6,5.01,0.00,21.6,21.1,00.0,30.3,23.3,09.4,0000.0,0002.42,0005.92,0001.46
2023-03-06 11:25:00,,0822.6,5.01,0.00,21.6,20.7,00.0,30.3,23.2,09.4,0000.0,0002.42,0005.39,0001.46
2023-03-06 11:26:00,,0822.6,4.99,0.00,21.6,20.4,00.0,30.3,23.2,09.3,0000.0,0002.41,0005.39,0001.45
2023-03-06 11:27:00,,0822.7,4.99,0.00,21.6,20.2,00.0,30.3,23.1,09.4,0000.0,0002.36,0005.26,0001.44
2023-03-06 11:28:00,,0822.6,5.00,0.00,21.5,20.0,00.0,30.3,23.1,09.4,0000.0,0002.25,0004.94,0001.43
2023-03-06 11:29:00,,0822.6,5.00,0.00,21.5,19.8,00.0,30.3,23.1,09.4,0000.0,0002.24,0004.85,0001.44
2023-03-06 11:30:00,,0822.6,5.00,0.00,21.5,19.7,00.0,30.3,23.1,09.4,0000.0,0002.30,0004.69,0001.44
2023-03-06 11:31:00,,0822.6,5.01,0.00,21.5,19.6,00.0,30.2,23.0,09.4,0000.0,0002.29,0004.44,0001.42
2023-03-06 11:32:00,,0822.6,5.01,0.00,21.4,19.8,00.0,30.2,23.0,09.4,0000.0,0002.28,0004.84,0001.40
2023-03-06 11:33:00,,0822.6,4.98,0.00,21.5,21.0,00.0,30.2,23.3,09.3,0000.0,0002.26,0004.91,0001.38
2023-03-06 11:34:00,,0822.7,5.01,0.00,21.6,22.1,00.0,30.2,23.5,09.3,0000.0,0002.28,0004.77,0001.39
2023-03-06 11:35:00,,0822.7,5.03,0.00,21.7,22.4,00.0,30.3,23.7,09.2,0000.0,0002.32,0004.88,0001.39
2023-03-06 11:36:00,,0822.7,5.01,0.00,21.8,21.9,00.0,30.3,23.6,09.2,0000.0,0002.42,0005.42,0001.40
2023-03-06 11:37:00,,0822.7,5.00,0.00,21.8,21.4,00.0,30.3,23.5,09.2,0000.0,0002.42,0005.51,0001.40
2023-03-06 11:38:00,,0822.7,5.01,0.00,21.7,20.9,00.0,30.4,23.4,09.2,0000.0,0002.44,0005.55,0001.40
2023-03-06 11:39:00,,0822.7,5.01,0.00,21.7,20.5,00.0,30.4,23.3,09.2,0000.0,0002.46,0005.66,0001.39
2023-03-06 11:40:00,,0822.7,5.00,0.00,21.7,20.3,00.0,30.4,23.3,09.3,0000.0,0002.47,0005.81,0001.37
2023-03-06 11:41:00,,0822.7,5.00,0.00,21.7,20.1,00.0,30.4,23.2,09.2,0000.0,0002.42,0005.70,0001.36
2023-03-06 11:42:00,,0822.8,5.01,0.00,21.6,19.9,00.0,30.4,23.2,09.2,0000.0,0002.41,0005.73,0001.36
2023-03-06 11:43:00,,0822.7,5.00,0.00,21.6,19.8,00.0,30.4,23.2,09.2,0000.0,0002.41,0005.52,0001.36
2023-03-06 11:44:00,,0822.7,5.01,0.00,21.6,19.7,00.0,30.3,23.1,09.3,0000.0,0002.44,0005.61,0001.37
2023-03-06 11:45:00,,0822.7,5.00,0.00,21.6,20.1,00.0,30.3,23.1,09.2,0000.0,0002.41,0005.58,0001.37
2023-03-06 11:46:00,,0822.7,5.02,0.00,21.7,21.4,00.0,30.3,23.4,09.2,0000.0,0002.36,0005.91,0001.37
2023-03-06 11:47:00,,0822.7,5.00,0.00,21.8,22.5,00.0,30.4,23.7,09.1,0000.0,0002.32,0005.89,0001.35
2023-03-06 11:48:00,,0822.7,4.99,0.00,21.9,23.1,00.0,30.4,23.9,09.0,0000.0,0002.35,0006.18,0001.33
2023-03-06 11:49:00,,0822.8,4.99,0.00,22.0,22.5,00.0,30.5,23.8,09.0,0000.0,0002.33,0006.23,0001.33
2023-03-06 11:50:00,,0822.8,5.03,0.00,22.0,21.9,00.0,30.5,23.8,09.0,0000.0,0002.31,0006.16,0001.32
2023-03-06 11:51:00,,0822.8,5.01,0.00,22.0,21.4,00.0,30.5,23.6,08.9,0000.0,0002.36,0006.21,0001.33
2023-03-06 11:52:00,,0822.8,4.99,0.00,21.9,20.9,00.0,30.5,23.5,08.9,0000.0,0002.38,0006.15,0001.34
2023-03-06 11:53:00,,0822.7,5.00,0.00,21.9,20.6,00.0,30.5,23.5,08.9,0000.0,0002.35,0005.91,0001.33
2023-03-06 11:54:00,,0822.8,4.98,0.00,21.9,20.4,00.0,30.5,23.4,08.9,0000.0,0002.33,0005.84,0001.33
2023-03-06 11:55:00,,0822.8,4.97,0.00,21.8,20.2,00.0,30.5,23.4,09.0,0000.0,0002.23,0006.57,0001.31
2023-03-06 11:56:00,,0822.8,5.01,0.00,21.8,20.0,00.0,30.5,23.4,09.0,0000.0,0002.24,0006.52,0001.31
2023-03-06 11:57:00,,0822.8,5.01,0.00,21.8,19.9,00.0,30.5,23.3,09.0,0000.0,0002.27,0006.22,0001.30
2023-03-06 11:58:00,,0822.8,5.00,0.00,21.7,19.8,00.0,30.5,23.3,09.1,0000.0,0002.29,0005.77,0001.32
2023-03-06 11:59:00,,0822.8,5.01,0.00,21.7,19.8,00.0,30.5,23.3,09.2,0000.0,0002.22,0005.37,0001.32
